Regional Weather Roundup
Issued by NWS

Home | Current Version | Previous Version | Graphics & Text | Print | Product List | Glossary On
Versions: 1 2 3 4 5 6 7 8 9 10 11 12 13 14 15 16 17 18 19 20 21 22 23 24 25 26 27 28 29 30 31 32 33 34 35 36 37 38 39 40 41 42 43 44 45 46 47 48 49 50
000
ASUS43 KBIS 241210
RWRND

NORTH DAKOTA REGIONAL WEATHER ROUNDUP
NATIONAL WEATHER SERVICE BISMARCK ND
700 AM CDT TUE APR 24 2018

NOTE: "FAIR" INDICATES FEW OR NO CLOUDS BELOW 12,000 FEET WITH NO
SIGNIFICANT WEATHER AND/OR OBSTRUCTIONS TO VISIBILITY.


NDZ001>003-009>011-017-241300-
NORTHWEST NORTH DAKOTA

CITY           SKY/WX    TMP DP  RH WIND       PRES   REMARKS
WILLISTON      CLEAR     21  18  88 CALM      30.47R
6HR MIN TEMP:  21; 6HR MAX TEMP:  34;

MINOT          CLEAR     30  23  75 SW6       30.42R
$$

NDZ018>021-031>035-040>046-241300-
SOUTHWEST NORTH DAKOTA

CITY           SKY/WX    TMP DP  RH WIND       PRES   REMARKS
BISMARCK       CLOUDY    40  33  76 N12       30.38R
6HR MIN TEMP:  40; 6HR MAX TEMP:  43; 6HR PCP:  0.23;

DICKINSON      MOCLDY    33  26  75 N7        30.41R
GARRISON         N/A     32  26  78 N10       30.41R
6HR MIN TEMP:  32; 6HR MAX TEMP:  41;

HETTINGER ARPT CLOUDY    33  29  85 NW8       30.42R
$$

NDZ004>008-012>016-024-026-027-054-241300-
NORTHEAST NORTH DAKOTA

CITY           SKY/WX    TMP DP  RH WIND       PRES   REMARKS
GRAND FORKS    MOCLDY    38  34  85 N9        30.35R
DEVILS LAKE    FAIR      30  27  88 NW8       30.39R
$$

NDZ022-023-025-028>030-036>039-047>053-241300-
SOUTHEAST NORTH DAKOTA

CITY           SKY/WX    TMP DP  RH WIND       PRES   REMARKS
FARGO          LGT RAIN  42  38  85 N17G25    30.32R
6HR MIN TEMP:  42; 6HR MAX TEMP:  51; 6HR PCP:  0.02;

JAMESTOWN      CLOUDY    39  36  89 NE12      30.35R
$$




USA.gov is the U.S. government's official web portal to all federal, state and local government web resources and services.